SHT22B EGLL-EGJB

Flight info

Callsign SHT22B
Flight time 0h 39m
Altitude 22000
Route GASGU N514 EVTES N621 SAM N63 LELNA
Aircraft A319/M-SDE3FGHIRWY/LB1

Departure

Time 2026-04-26 14:09
Airport London Heathrow Airport (EGLL)

Arrival

Time 2026-04-26 14:48
Airport Guernsey Airport (EGJB)
Time Latitude Longitude Altitude Speed Heading
2026-04-26 13:51 51.46821 -0.48821 89 ft 0 kts 179°
2026-04-26 14:00 51.46852 -0.48824 87 ft 4 kts 166°
2026-04-26 14:00 51.46874 -0.48840 89 ft 4 kts 118°
2026-04-26 14:00 51.46877 -0.48856 89 ft 0 kts 90°
2026-04-26 14:05 51.46877 -0.48848 89 ft 4 kts 90°
2026-04-26 14:05 51.46860 -0.48764 85 ft 10 kts 145°
2026-04-26 14:05 51.46828 -0.48753 85 ft 1 kts 177°
2026-04-26 14:05 51.46809 -0.48751 85 ft 6 kts 178°
2026-04-26 14:06 51.46749 -0.48749 85 ft 10 kts 179°
2026-04-26 14:06 51.46669 -0.48747 86 ft 12 kts 180°
2026-04-26 14:06 51.46606 -0.48765 89 ft 1 kts 195°
2026-04-26 14:06 51.46596 -0.48770 88 ft 0 kts 196°
2026-04-26 14:07 51.46564 -0.48783 84 ft 8 kts 190°
2026-04-26 14:07 51.46502 -0.48762 86 ft 11 kts 145°
2026-04-26 14:08 51.46478 -0.48644 86 ft 6 kts 90°
2026-04-26 14:08 51.46478 -0.48628 86 ft 1 kts 90°
2026-04-26 14:08 51.46478 -0.48622 90 ft 2 kts 90°
2026-04-26 14:08 51.46478 -0.48393 87 ft 57 kts 90°
2026-04-26 14:09 51.46484 -0.47259 84 ft 142 kts 89°
2026-04-26 14:09 51.46496 -0.45596 720 ft 149 kts 89°
2026-04-26 14:09 51.46513 -0.43927 1523 ft 153 kts 90°
2026-04-26 14:09 51.46513 -0.42139 1964 ft 171 kts 97°
2026-04-26 14:10 51.45949 -0.40360 2331 ft 194 kts 131°
2026-04-26 14:10 51.45071 -0.38568 2725 ft 216 kts 124°
2026-04-26 14:10 51.44206 -0.36426 3266 ft 242 kts 122°
2026-04-26 14:10 51.43155 -0.34237 4120 ft 255 kts 139°
2026-04-26 14:11 51.39776 -0.32652 6156 ft 268 kts 189°
2026-04-26 14:11 51.38052 -0.33812 7122 ft 273 kts 216°
2026-04-26 14:11 51.36621 -0.35827 8120 ft 275 kts 223°
2026-04-26 14:12 51.35205 -0.37899 9135 ft 277 kts 223°
2026-04-26 14:12 51.33773 -0.39993 10097 ft 281 kts 223°
2026-04-26 14:12 51.32317 -0.42165 10695 ft 297 kts 226°
2026-04-26 14:12 51.30979 -0.44851 11024 ft 321 kts 237°
2026-04-26 14:13 51.29173 -0.51678 12212 ft 342 kts 252°
2026-04-26 14:13 51.28482 -0.55345 12971 ft 346 kts 253°
2026-04-26 14:13 51.27824 -0.59055 13758 ft 350 kts 253°
2026-04-26 14:14 51.27142 -0.62814 14466 ft 353 kts 253°
2026-04-26 14:14 51.26437 -0.66578 15160 ft 356 kts 252°
2026-04-26 14:14 51.25718 -0.70326 15854 ft 358 kts 252°
2026-04-26 14:14 51.24973 -0.74147 16550 ft 361 kts 251°
2026-04-26 14:15 51.24219 -0.77982 17256 ft 364 kts 251°
2026-04-26 14:15 51.23459 -0.81850 17953 ft 366 kts 251°
2026-04-26 14:15 51.22691 -0.85745 18655 ft 369 kts 251°
2026-04-26 14:15 51.21915 -0.89672 19252 ft 372 kts 251°
2026-04-26 14:16 51.21105 -0.93598 19844 ft 375 kts 248°
2026-04-26 14:16 51.19932 -0.97332 20437 ft 378 kts 238°
2026-04-26 14:16 51.18375 -1.00717 21020 ft 381 kts 232°
2026-04-26 14:16 51.16738 -1.04059 21249 ft 382 kts 232°
2026-04-26 14:17 51.15110 -1.07394 21300 ft 382 kts 232°
2026-04-26 14:17 51.13478 -1.10741 21300 ft 382 kts 232°
2026-04-26 14:17 51.11870 -1.14034 21299 ft 382 kts 232°
2026-04-26 14:17 51.10242 -1.17364 21298 ft 382 kts 232°
2026-04-26 14:18 51.08526 -1.20594 21297 ft 382 kts 226°
2026-04-26 14:18 51.06495 -1.23312 21301 ft 383 kts 216°
2026-04-26 14:18 51.04250 -1.25622 21301 ft 384 kts 214°
2026-04-26 14:18 51.02002 -1.27905 21302 ft 384 kts 214°
2026-04-26 14:19 50.99748 -1.30194 21303 ft 384 kts 214°
2026-04-26 14:19 50.97500 -1.32482 21302 ft 384 kts 214°
2026-04-26 14:19 50.95229 -1.34725 21302 ft 384 kts 210°
2026-04-26 14:19 50.92846 -1.36657 21304 ft 385 kts 208°
2026-04-26 14:20 50.90453 -1.38570 21302 ft 385 kts 208°
2026-04-26 14:20 50.88061 -1.40477 21302 ft 385 kts 208°
2026-04-26 14:20 50.85668 -1.42381 21300 ft 385 kts 208°
2026-04-26 14:20 50.83303 -1.44261 21298 ft 385 kts 209°
2026-04-26 14:21 50.80912 -1.46161 21298 ft 384 kts 209°
2026-04-26 14:21 50.78522 -1.48060 21296 ft 384 kts 209°
2026-04-26 14:21 50.76134 -1.49955 21297 ft 384 kts 209°
2026-04-26 14:21 50.73742 -1.51851 21298 ft 384 kts 209°
2026-04-26 14:22 50.72122 -1.53134 21305 ft 384 kts 209°
2026-04-26 14:22 50.69735 -1.55025 21303 ft 384 kts 209°
2026-04-26 14:22 50.67345 -1.56921 21303 ft 384 kts 209°
2026-04-26 14:22 50.64986 -1.58793 21298 ft 384 kts 209°
2026-04-26 14:23 50.62595 -1.60682 21290 ft 384 kts 208°
2026-04-26 14:23 50.60203 -1.62564 21296 ft 384 kts 208°
2026-04-26 14:23 50.57806 -1.64446 21300 ft 384 kts 208°
2026-04-26 14:23 50.55413 -1.66322 21293 ft 384 kts 208°
2026-04-26 14:24 50.53024 -1.68196 21295 ft 384 kts 208°
2026-04-26 14:24 50.50632 -1.70074 21291 ft 384 kts 208°
2026-04-26 14:24 50.48242 -1.71947 21289 ft 384 kts 208°
2026-04-26 14:24 50.45856 -1.73816 21284 ft 384 kts 208°
2026-04-26 14:25 50.43465 -1.75690 21281 ft 384 kts 208°
2026-04-26 14:25 50.41072 -1.77562 21286 ft 384 kts 208°
2026-04-26 14:25 50.38688 -1.79421 21279 ft 383 kts 208°
2026-04-26 14:25 50.36301 -1.81279 21281 ft 383 kts 208°
2026-04-26 14:26 50.33922 -1.83129 21280 ft 382 kts 208°
2026-04-26 14:26 50.31533 -1.84986 21296 ft 382 kts 208°
2026-04-26 14:26 50.29160 -1.86830 21277 ft 381 kts 208°
2026-04-26 14:26 50.26813 -1.88651 21281 ft 381 kts 208°
2026-04-26 14:27 50.24412 -1.90512 21278 ft 381 kts 208°
2026-04-26 14:27 50.22067 -1.92329 21279 ft 381 kts 208°
2026-04-26 14:27 50.19694 -1.94167 21273 ft 381 kts 208°
2026-04-26 14:27 50.17321 -1.96001 21264 ft 381 kts 208°
2026-04-26 14:28 50.14946 -1.97830 21276 ft 381 kts 208°
2026-04-26 14:28 50.12567 -1.99660 21276 ft 380 kts 208°
2026-04-26 14:28 50.10199 -2.01481 21268 ft 380 kts 208°
2026-04-26 14:28 50.07817 -2.03310 21272 ft 380 kts 208°
2026-04-26 14:29 50.05448 -2.05126 21274 ft 380 kts 208°
2026-04-26 14:29 50.03070 -2.06948 21272 ft 380 kts 208°
2026-04-26 14:29 50.00703 -2.08779 21264 ft 380 kts 210°
2026-04-26 14:29 49.98484 -2.10992 21267 ft 378 kts 219°
2026-04-26 14:30 49.96538 -2.13653 21070 ft 380 kts 227°
2026-04-26 14:30 49.94782 -2.16711 20703 ft 376 kts 230°
2026-04-26 14:30 49.93063 -2.19741 20186 ft 373 kts 230°
2026-04-26 14:30 49.91352 -2.22738 19674 ft 369 kts 230°
2026-04-26 14:31 49.89654 -2.25700 19173 ft 364 kts 230°
2026-04-26 14:31 49.87978 -2.28617 18676 ft 360 kts 229°
2026-04-26 14:31 49.86322 -2.31492 18125 ft 355 kts 229°
2026-04-26 14:31 49.84687 -2.34330 17605 ft 349 kts 229°
2026-04-26 14:32 49.83083 -2.37115 17121 ft 343 kts 229°
2026-04-26 14:32 49.81508 -2.39850 16609 ft 338 kts 229°
2026-04-26 14:32 49.79946 -2.42558 16103 ft 336 kts 229°
2026-04-26 14:32 49.78392 -2.45249 15581 ft 335 kts 229°
2026-04-26 14:33 49.76843 -2.47923 15064 ft 333 kts 229°
2026-04-26 14:33 49.75297 -2.50591 14531 ft 332 kts 229°
2026-04-26 14:33 49.73775 -2.53219 14002 ft 332 kts 229°
2026-04-26 14:33 49.72124 -2.55750 13416 ft 331 kts 219°
2026-04-26 14:34 49.70192 -2.57664 12862 ft 330 kts 207°
2026-04-26 14:34 49.68037 -2.58890 12279 ft 330 kts 194°
2026-04-26 14:34 49.65765 -2.59370 11698 ft 330 kts 183°
2026-04-26 14:34 49.63469 -2.59462 11121 ft 329 kts 182°
2026-04-26 14:35 49.61240 -2.59561 10898 ft 318 kts 182°
2026-04-26 14:35 49.59080 -2.59666 10774 ft 304 kts 182°
2026-04-26 14:35 49.57009 -2.59767 10633 ft 293 kts 182°
2026-04-26 14:35 49.54993 -2.59864 10376 ft 288 kts 182°
2026-04-26 14:36 49.53000 -2.59957 10164 ft 285 kts 182°
2026-04-26 14:36 49.51019 -2.60050 10038 ft 285 kts 182°
2026-04-26 14:36 49.49045 -2.60142 9904 ft 283 kts 182°
2026-04-26 14:36 49.47057 -2.60293 9419 ft 289 kts 189°
2026-04-26 14:37 49.45231 -2.61452 9103 ft 284 kts 216°
2026-04-26 14:37 49.43940 -2.63679 8595 ft 280 kts 243°
2026-04-26 14:37 49.43449 -2.66544 7975 ft 279 kts 266°
2026-04-26 14:37 49.43343 -2.69516 7344 ft 279 kts 267°
2026-04-26 14:38 49.43239 -2.72478 6777 ft 276 kts 267°
2026-04-26 14:38 49.43132 -2.75408 6192 ft 274 kts 267°
2026-04-26 14:38 49.43025 -2.78312 5617 ft 271 kts 268°
2026-04-26 14:38 49.43223 -2.81159 5048 ft 267 kts 285°
2026-04-26 14:39 49.43950 -2.83757 4445 ft 264 kts 302°
2026-04-26 14:39 49.45100 -2.85906 3863 ft 263 kts 314°
2026-04-26 14:39 49.46336 -2.87882 3641 ft 247 kts 314°
2026-04-26 14:39 49.47477 -2.89727 3525 ft 231 kts 314°
2026-04-26 14:40 49.48366 -2.91669 3449 ft 215 kts 292°
2026-04-26 14:40 49.48614 -2.93833 3396 ft 200 kts 266°
2026-04-26 14:40 49.48236 -2.95812 3350 ft 192 kts 241°
2026-04-26 14:40 49.47392 -2.97281 3340 ft 176 kts 217°
2026-04-26 14:41 49.46333 -2.98049 3279 ft 162 kts 195°
2026-04-26 14:41 49.45255 -2.98157 3235 ft 153 kts 174°
2026-04-26 14:41 49.44246 -2.97698 3202 ft 152 kts 153°
2026-04-26 14:41 49.43401 -2.96751 3140 ft 151 kts 133°
2026-04-26 14:42 49.42817 -2.95424 3078 ft 150 kts 113°
2026-04-26 14:42 49.42635 -2.93874 3017 ft 149 kts 89°
2026-04-26 14:42 49.42618 -2.92291 3001 ft 148 kts 89°
2026-04-26 14:42 49.42632 -2.90715 3001 ft 147 kts 88°
2026-04-26 14:43 49.42665 -2.89138 3003 ft 148 kts 87°
2026-04-26 14:43 49.42706 -2.87564 3002 ft 148 kts 86°
2026-04-26 14:43 49.42750 -2.85987 3003 ft 148 kts 86°
2026-04-26 14:43 49.42796 -2.84413 3003 ft 148 kts 86°
2026-04-26 14:44 49.42842 -2.82856 2959 ft 148 kts 86°
2026-04-26 14:44 49.42889 -2.81281 2830 ft 147 kts 87°
2026-04-26 14:44 49.42935 -2.79714 2664 ft 146 kts 87°
2026-04-26 14:44 49.42980 -2.78167 2482 ft 142 kts 87°
2026-04-26 14:45 49.43024 -2.76695 2295 ft 135 kts 88°
2026-04-26 14:45 49.43051 -2.75745 2174 ft 133 kts 88°
2026-04-26 14:45 49.43106 -2.73857 1943 ft 131 kts 88°
2026-04-26 14:45 49.43147 -2.72462 1765 ft 130 kts 88°
2026-04-26 14:46 49.43187 -2.71084 1588 ft 128 kts 88°
2026-04-26 14:46 49.43226 -2.69719 1410 ft 127 kts 87°
2026-04-26 14:46 49.43265 -2.68365 1245 ft 126 kts 87°
2026-04-26 14:46 49.43303 -2.67023 1074 ft 125 kts 87°
2026-04-26 14:47 49.43340 -2.65711 909 ft 125 kts 88°
2026-04-26 14:47 49.43378 -2.64388 727 ft 124 kts 88°
2026-04-26 14:47 49.43415 -2.63070 571 ft 123 kts 87°
2026-04-26 14:47 49.43451 -2.61767 403 ft 122 kts 88°
2026-04-26 14:48 49.43485 -2.60524 330 ft 95 kts 88°
2026-04-26 14:48 49.43500 -2.59974 343 ft 15 kts 87°
2026-04-26 14:48 49.43453 -2.59865 344 ft 15 kts 172°
2026-04-26 14:48 49.43384 -2.59857 344 ft 8 kts 176°
2026-04-26 14:49 49.43350 -2.59793 346 ft 10 kts 85°
2026-04-26 14:49 49.43351 -2.59694 349 ft 7 kts 137°
2026-04-26 14:49 49.43295 -2.59690 345 ft 10 kts 177°
2026-04-26 14:49 49.43261 -2.59687 344 ft 0 kts 178°
2026-04-26 14:50 49.43259 -2.59687 344 ft 0 kts 178°